Location: Gloden
(48.4833°N, 15.3167°E)
Time: 06:32:57
(UTC+00:00)

Helios 1A Rocket - Pass Details

Date: 15 December 2019
Orbit: 564 x 587 km, 98.3° (Epoch: 26 January)

Event Time Altitude Azimuth Distance (km) Brightness Sun altitude
Rises 05:26:28 0° 7° (N) 2,775 6.3 -12.0°
Reaches altitude 10° 05:28:43 10° 360° (N) 1,872 5.3 -11.7°
Maximum altitude 05:32:28 38° 292° (WNW) 877 3.3 -11.1°
Drops below altitude 10° 05:36:11 10° 224° (SW) 1,857 5.3 -10.6°
Sets 05:38:25 0° 216° (SW) 2,750 6.3 -10.2°
